Weather History for KCRW - March, 2014

Change the Weather History Date:

Friday, March 28, 2014

  Actual Average Record
Temperature  
Mean Temperature 60 °F 50 °F  
Max Temperature 70 °F 61 °F 86 °F (1989)
Min Temperature 49 °F 39 °F 15 °F (1947)
Degree Days  
Heating Degree Days 5 15  
Month to date heating degree days 657 555  
Since 1 July heating degree days 4424 4009  
Cooling Degree Days 0 0  
Month to date cooling degree days 0 0  
Year to date cooling degree days 0 0  
Growing Degree Days 9 (Base 50)    
Moisture  
Dew Point 45 °F    
Average Humidity 59    
Maximum Humidity 93    
Minimum Humidity 24    
Precipitation  
Precipitation 0.19 in 0.12 in 1.79 in (1932)
Month to date precipitation 2.11 3.56  
Year to date precipitation 9.17 9.75  
Snow  
Snow 0.00 in - - ()
Month to date snowfall 11.7  
Since 1 September snowfall 49.4  
Snow Depth 0.00 in    
Sea Level Pressure  
Sea Level Pressure 29.97 in    
Wind  
Wind Speed 9 mph (SSW)    
Max Wind Speed 31 mph    
Max Gust Speed 41 mph    
Visibility 10 miles    
Events Rain    
T = Trace of Precipitation, MM = Missing Value Source: NWS Daily Summary

Daily Weather History Graph

Daily Weather History Graph

Search for Another Location

Airport or City:

Trip Planner

Search our weather history database for the weather conditions in past years. The results will help you decide how hot, cold, wet, or windy it might be!

Date:

Astronomy

Mar. 28, 2014 Rise Set
Actual Time 7:17 AM EDT 7:45 PM EDT
Civil Twilight 6:50 AM EDT 8:12 PM EDT
Nautical Twilight 6:19 AM EDT 8:43 PM EDT
Astronomical Twilight 5:47 AM EDT 9:15 PM EDT
Moon 5:45 AM EDT 5:42 PM EDT
Length of Visible Light 13h 21m
Length of Day
12h 28m
Waning Crescent, 6% of the Moon is Illuminated
Mar 28
Waning Crescent
Mar 30
New
Apr 7
First Quarter
Apr 15
Full
Apr 22
Last Quarter

Hourly Weather History & Observations

Time (EDT) Temp. Dew Point Humidity Pressure Visibility Wind Dir Wind Speed Gust Speed Precip Events Conditions
12:54 AM 57.0 °F 21.0 °F 25% 29.93 in 10.0 mi South 15.0 mph 25.3 mph N/A   Clear
1:54 AM 57.9 °F 21.9 °F 25% 29.93 in 10.0 mi South 11.5 mph 21.9 mph N/A   Clear
2:54 AM 57.0 °F 25.0 °F 29% 29.94 in 10.0 mi South 11.5 mph - 0.00 in   Mostly Cloudy
3:54 AM 57.0 °F 28.9 °F 34% 29.94 in 10.0 mi South 9.2 mph - 0.00 in Rain Light Rain
4:54 AM 57.0 °F 30.9 °F 37% 29.93 in 10.0 mi South 10.4 mph - 0.00 in Rain Light Rain
5:54 AM 55.9 °F 33.1 °F 42% 29.91 in 10.0 mi South 4.6 mph - 0.00 in   Overcast
6:54 AM 52.0 °F 41.0 °F 66% 29.94 in 6.0 mi SW 3.5 mph - 0.05 in Rain Light Rain
7:54 AM 48.9 °F 46.0 °F 90% 29.96 in 10.0 mi SSW 4.6 mph - 0.03 in Rain Light Rain
8:54 AM 52.0 °F 48.0 °F 86% 29.95 in 10.0 mi South 10.4 mph - 0.03 in   Mostly Cloudy
9:54 AM 57.0 °F 48.9 °F 74% 29.94 in 10.0 mi South 13.8 mph 19.6 mph N/A   Mostly Cloudy
10:54 AM 62.1 °F 50.0 °F 65% 29.94 in 10.0 mi SSW 16.1 mph 26.5 mph N/A   Mostly Cloudy
11:54 AM 64.9 °F 51.1 °F 61% 29.94 in 10.0 mi SW 24.2 mph 38.0 mph N/A   Overcast
12:54 PM 64.0 °F 50.0 °F 60% 29.95 in 10.0 mi SW 16.1 mph 32.2 mph N/A   Overcast
1:54 PM 64.0 °F 51.1 °F 63% 29.96 in 10.0 mi WSW 12.7 mph - N/A   Overcast
2:54 PM 66.0 °F 52.0 °F 60% 29.97 in 10.0 mi SW 11.5 mph - N/A   Overcast
3:54 PM 68.0 °F 52.0 °F 56% 29.96 in 10.0 mi West 15.0 mph 21.9 mph N/A   Mostly Cloudy
4:54 PM 69.1 °F 51.1 °F 53% 29.97 in 10.0 mi West 11.5 mph 18.4 mph N/A   Mostly Cloudy
5:54 PM 70.0 °F 51.1 °F 51% 29.98 in 10.0 mi WSW 10.4 mph - N/A   Mostly Cloudy
6:54 PM 68.0 °F 50.0 °F 52% 29.98 in 10.0 mi WSW 6.9 mph - N/A   Mostly Cloudy
7:54 PM 64.9 °F 51.1 °F 61% 29.99 in 10.0 mi North 6.9 mph - N/A   Mostly Cloudy
8:54 PM 57.9 °F 55.0 °F 90% 30.03 in 10.0 mi SSE 5.8 mph - 0.03 in Rain Light Rain
9:54 PM 57.0 °F 55.9 °F 96% 30.05 in 10.0 mi Calm Calm - 0.00 in Rain Light Rain
10:54 PM 57.0 °F 55.9 °F 96% 30.06 in 6.0 mi Calm Calm - 0.04 in Rain Light Rain
11:54 PM 55.9 °F 54.0 °F 93% 30.06 in 10.0 mi East 5.8 mph - 0.01 in   Overcast